Regional Weather Roundup
Issued by NWS

Home | Current Version | Previous Version | Text Only | Print | Product List | Glossary Off
Versions: 1 2 3 4 5 6 7 8 9 10 11 12 13 14 15 16 17 18 19 20 21 22 23 24 25 26 27 28 29 30 31 32 33 34 35 36 37 38 39 40 41 42 43 44 45 46 47 48 49 50

000
ASUS43 KLMK 300802
RWRKY
KENTUCKY REGIONAL WEATHER ROUNDUP
NATIONAL WEATHER SERVICE LOUISVILLE KY
400 AM EDT TUE JUN 30 2015

NOTE "FAIR" INDICATES FEW OR NO CLOUDS BELOW 12,000 FEET
WITH NO SIGNIFICANT WEATHER AND/OR OBSTRUCTIONS TO VISIBILITY.

KYZ001>023-026-027-061>063-070>075-300900-
WESTERN AND SOUTH CENTRAL KENTUCKY

CITY           SKY/WX    TMP DP  RH WIND       PRES   REMARKS
PADUCAH        CLEAR     70  66  87 SW3       29.86F
HENDERSON      CLOUDY    66  64  94 W3        29.86S
OWENSBORO      CLEAR     67  65  93 CALM      29.86F
HOPKINSVILLE   CLEAR     69  67  94 S3        29.87F
BOWLING GREEN  CLEAR     70  66  87 S5        29.88F
GLASGOW        NOT AVBL
$$

KYZ024-025-028>034-038-045-046-053-300900-
NORTH CENTRAL KENTUCKY

CITY           SKY/WX    TMP DP  RH WIND       PRES   REMARKS
LOUISVILLE/SDF PTCLDY    70  63  78 W8        29.85S
LOUISVILLE/LOU CLEAR     68  63  84 CALM      29.86F
FORT KNOX      CLEAR     63  62  94 CALM      29.86S
$$

KYZ035>037-039>044-047>052-055>060-089>105-300900-
NORTHEAST KENTUCKY

CITY           SKY/WX    TMP DP  RH WIND       PRES   REMARKS
LEXINGTON      PTCLDY    65  64  97 S8        29.89R
COVINGTON      CLEAR     65  64  97 SW6       29.83F
FRANKFORT      CLEAR     65  63  93 SW3       29.86S
$$

KYZ054-064>069-076>088-106>120-300900-
SOUTHEAST KENTUCKY

CITY           SKY/WX    TMP DP  RH WIND       PRES   REMARKS
JACKSON        CLOUDY    66  63  90 VRB3      29.92R
LONDON         MOCLDY    67  61  81 SW5       29.93S
SOMERSET       NOT AVBL
MIDDLESBORO    CLOUDY    66  66  99 CALM      29.95R
MONTICELLO     CLOUDY    67  67 100 CALM      29.95R
$$




USA.gov is the U.S. government's official web portal to all federal, state and local government web resources and services.